Terug naar catalogus

STARONE D2

ActiefCommunicatieGEO
NORAD 49055·PAYLOAD·🇧🇷 Brazil

Gelanceerd Jul 30, 2021 vanaf Guiana Space Centre

Loading…

TLE

VersSource: Space-Track

Epoch: Sep 14, 2026, 13:28 UTC

1 49055U 21069A   26257.56123428 -.00000273  00000-0  00000-0 0  9997
2 49055   0.0147 147.4033 0002730  25.2239 312.9778  1.00269669 18852

Volg STARONE D2 in realtime met AllMySat

Download on the App Store